Location: Gloden
(48.4833°N, 15.3167°E)
Time: 03:44:54
(UTC+00:00)

Cosmos 2292 Rocket - Pass Details

Date: 15 December 2019
Orbit: 379 x 1457 km, 83.0° (Epoch: 27 January)

Event Time Altitude Azimuth Distance (km) Brightness Sun altitude
Rises 04:57:56 0° 350° (N) 4,036 7.5 -16.5°
Reaches altitude 10° 05:00:56 10° 351° (N) 2,907 6.7 -16.0°
Maximum altitude 05:07:34 87° 80° (E) 861 4.2 -15.0°
Drops below altitude 10° 05:12:25 10° 171° (S) 2,152 6.7 -14.2°
Sets 05:14:23 0° 172° (S) 2,927 7.4 -13.9°
